Tracking 25648 objects as of 16-May-2022
HD Live streaming from Space Station
objects crossing your sky now

COSMOS 2251 DEB

Track COSMOS 2251 DEB now!
10-day predictions


NORAD ID: 36052
Int'l Code: 1993-036AXP
Perigee: 715.6 km
Apogee: 737.3 km
Inclination: 74.0 °
Period: 99.2 minutes
Semi major axis: 7097 km
RCS: 0.0013 m2 (small)
Launch date: June 16, 1993
Source: Commonwealth of Independent States (former USSR) (CIS)
Launch site: PLESETSK MISSILE AND SPACE COMPLEX (PKMTR)

Note: This is SATELLITE DEBRIS
aabbcc
Your satellite tracking list
Your tracking list is empty




NASA's NSSDC Master Catalog

Two Line Element Set (TLE):
1 36052U 93036AXP 22135.41801123  .00005451  00000-0  13546-2 0  9996
2 36052  74.0335  19.6081 0015289  63.9499 296.3234 14.51946603673105
Source of the keplerian elements: AFSPC